This is the latest recevied weather packets stored in our database for station/object K5YNC. If no packets are shown the sender has not sent any weather packets the latest 1 day(s).
| Time | Temp. | Humidity | Pressure | Rain* | Wind** | Luminosity | Snow |
|---|---|---|---|---|---|---|---|
| 1778076679 | 11.11° C | 74% | 1017.4 hPa | 0 mm | - | 60 W/m² | - |
| 1778076376 | 11.11° C | 73% | 1017.1 hPa | 0 mm | - | 80 W/m² | - |
| 1778075770 | 11.11° C | 74% | 1016.9 hPa | 0 mm | - | 79 W/m² | - |
| 1778075466 | 11.11° C | 75% | 1016.7 hPa | 0 mm | - | 64 W/m² | - |
| 1778074556 | 11.11° C | 75% | 1016.7 hPa | 0 mm | - | 54 W/m² | - |
| 1778074253 | 11.11° C | 75% | 1016.6 hPa | 0 mm | - | 58 W/m² | - |
| 1778072738 | 10.56° C | 76% | 1016.6 hPa | 0 mm | - | 34 W/m² | - |
| 1778071831 | 10.56° C | 77% | 1016.2 hPa | 0 mm | - | 27 W/m² | - |
| 1778071226 | 10.56° C | 76% | 1016.2 hPa | 0 mm | - | 26 W/m² | - |
| 1778070924 | 10.56° C | 77% | 1015.7 hPa | 0 mm | - | 30 W/m² | - |
| 1778070318 | 10.56° C | 77% | 1016 hPa | 0 mm | - | 16 W/m² | - |
| 1778069714 | 10.56° C | 78% | 1016.2 hPa | 0 mm | - | 10 W/m² | - |
| 1778069108 | 10.56° C | 78% | 1015.7 hPa | 0 mm | - | 8 W/m² | - |
| 1778068201 | 10° C | 79% | 1015.9 hPa | 0 mm | - | 2 W/m² | - |
| 1778067596 | 10° C | 79% | 1015.8 hPa | 0 mm | - | 1 W/m² | - |
| 1778066990 | 10° C | 80% | 1015.6 hPa | 0 mm | - | 0 W/m² | - |
| 1778066083 | 10° C | 81% | 1015.3 hPa | 0 mm | - | 0 W/m² | - |
| 1778064870 | 10° C | 82% | 1015.3 hPa | 0 mm | - | 0 W/m² | - |
| 1778062146 | 10° C | 82% | 1014.8 hPa | 0 mm | - | 0 W/m² | - |
| 1778061844 | 10° C | 82% | 1014.6 hPa | 0 mm | - | 0 W/m² | - |
| 1778060936 | 10° C | 81% | 1014.8 hPa | 0 mm | - | 0 W/m² | - |
| 1778060635 | 10° C | 81% | 1014.4 hPa | 0 mm | - | 0 W/m² | - |
| 1778060332 | 10° C | 81% | 1014.4 hPa | 0 mm | - | 0 W/m² | - |
| 1778060030 | 10.56° C | 80% | 1014.6 hPa | 0 mm | - | 0 W/m² | - |
| 1778058214 | 10.56° C | 79% | 1013.8 hPa | 0 mm | - | 0 W/m² | - |
* Rain latest hour (hover to see other rain measurements)
** Current wind speed in m/s (hover to see current wind gust speed)